This is the latest recevied weather packets stored in our database for station/object KF0FSA. If no packets are shown the sender has not sent any weather packets the latest 10 day(s).
| Time | Temp. | Humidity | Pressure | Rain* | Wind** | Luminosity | Snow |
|---|---|---|---|---|---|---|---|
| 1777988319 | 5.56° C | 60% | 958.8 hPa | 0 mm | - | 213 W/m² | - |
| 1777988138 | 5° C | 60% | 958.8 hPa | 0 mm | - | 183 W/m² | - |
| 1777987714 | 5° C | 62% | 958.7 hPa | 0 mm | - | 159 W/m² | - |
| 1777987416 | 5° C | 62% | 958.5 hPa | 0 mm | - | 184 W/m² | - |
| 1777987115 | 5° C | 61% | 958.5 hPa | 0 mm | - | 168 W/m² | - |
| 1777986939 | 5° C | 62% | 958.5 hPa | 0 mm | - | 153 W/m² | - |
| 1777986639 | 4.44° C | 62% | 958.3 hPa | 0 mm | - | 170 W/m² | - |
| 1777986216 | 4.44° C | 63% | 958.3 hPa | 0 mm | - | 144 W/m² | - |
| 1777985915 | 4.44° C | 64% | 958.3 hPa | 0 mm | - | 120 W/m² | - |
| 1777985616 | 4.44° C | 64% | 958.1 hPa | 0 mm | - | 145 W/m² | - |
| 1777985316 | 3.89° C | 65% | 958.2 hPa | 0 mm | - | 103 W/m² | - |
| 1777985016 | 3.89° C | 66% | 958.2 hPa | 0 mm | - | 90 W/m² | - |
| 1777984712 | 3.89° C | 66% | 958.1 hPa | 0 mm | - | 90 W/m² | - |
| 1777984410 | 3.89° C | 66% | 958.1 hPa | 0 mm | - | 90 W/m² | - |
| 1777984234 | 3.89° C | 65% | 957.9 hPa | 0 mm | - | 92 W/m² | - |
| 1777983810 | 3.89° C | 66% | 957.9 hPa | 0 mm | - | 96 W/m² | - |
| 1777983509 | 3.33° C | 66% | 957.7 hPa | 0 mm | - | 103 W/m² | - |
| 1777983334 | 3.33° C | 67% | 957.7 hPa | 0 mm | - | 72 W/m² | - |
| 1777982910 | 3.33° C | 67% | 957.6 hPa | 0 mm | - | 57 W/m² | - |
| 1777982610 | 3.33° C | 68% | 957.6 hPa | 0 mm | - | 49 W/m² | - |
| 1777982309 | 3.33° C | 68% | 957.5 hPa | 0 mm | - | 41 W/m² | - |
| 1777982011 | 3.33° C | 68% | 957.4 hPa | 0 mm | - | 35 W/m² | - |
| 1777981710 | 3.33° C | 68% | 957.4 hPa | 0 mm | - | 30 W/m² | - |
| 1777981410 | 2.78° C | 68% | 957.3 hPa | 0 mm | - | 28 W/m² | - |
| 1777981111 | 2.78° C | 68% | 957.4 hPa | 0 mm | - | 22 W/m² | - |
* Rain latest hour (hover to see other rain measurements)
** Current wind speed in m/s (hover to see current wind gust speed)